Wind_Speed
10 11 11 10 8 8 7 7 7 7 6 6 6 6 5 6 6 6 6 6 6 9 11 12 12 11 12 13 14 13 12 12 11 12 12 12 12 11 9 6 5 7 7 7 7 7 6 7 9 8 8 8 7 7 7 8 9 8 8 7 7 7 7 7 7 7 7 7 7 7 7 7 8 9 9 9 8 8 9 11 11 8 7 7 9
10 10 10 9 7 7 7 6 6 5 5 6 6 6 5 6 6 6 7 6 7 9 11 12 12 12 12 13 13 12 12 12 11 12 12 12 12 12 9 6 7 8 6 6 7 6 5 5 7 8 8 8 8 8 8 8 8 8 8 8 7 7 6 6 6 6 6 6 7 7 7 6 7 8 8 8 7 7 9 10 10 9 8 8 9
10 9 8 7 6 6 6 6 5 6 6 6 6 6 5 6 8 8 8 8 8 8 9 11 12 12 12 12 13 12 12 11 11 11 11 11 12 12 10 7 7 6 5 5 6 7 5 4 5 6 7 8 8 7 7 8 8 8 9 10 9 8 7 6 6 5 5 6 6 6 7 6 6 6 6 7 6 7 8 8 8 8 8 7 8
10 9 8 7 7 6 6 6 7 7 7 6 6 6 7 7 8 9 9 9 10 9 8 10 11 12 12 13 14 13 12 12 12 12 11 10 10 11 10 8 7 6 5 5 5 7 6 5 5 4 5 6 6 6 8 8 9 9 10 11 12 11 10 8 7 5 4 5 5 5 6 6 6 5 4 5 5 5 6 7 6 6 6 6 6
11 10 9 8 8 7 7 8 8 8 7 6 6 8 8 8 9 10 10 10 10 9 9 9 11 12 12 12 14 13 12 12 12 12 11 10 10 9 9 8 7 7 6 5 4 6 6 6 6 5 5 5 4 6 8 8 9 9 10 11 12 12 11 10 10 8 7 6 5 5 5 6 6 5 5 4 4 4 5 5 4 4 5 5 6
11 11 10 8 8 9 8 8 8 8 7 7 7 8 9 8 10 11 12 10 10 9 9 10 11 12 13 13 13 13 12 11 11 11 10 10 9 9 8 8 8 7 6 5 5 5 4 5 5 5 5 5 4 4 5 5 5 6 7 8 9 10 10 10 11 12 11 9 8 8 7 6 5 5 6 5 3 3 3 4 4 4 5 5 6
11 10 9 8 8 9 9 8 7 7 7 7 7 8 9 9 10 12 13 11 10 10 10 10 11 12 13 13 12 12 10 10 11 10 10 9 9 9 8 8 8 7 7 6 5 5 5 4 4 4 4 4 4 2 2 3 3 4 4 4 5 7 8 9 10 11 11 11 11 11 10 9 8 7 7 6 6 5 3 3 3 4 4 4 4
11 10 9 8 8 9 10 9 8 8 7 8 8 8 9 10 10 11 12 11 10 11 10 10 11 12 13 11 10 11 11 11 10 10 9 8 8 8 8 8 7 6 7 6 5 5 4 4 3 3 3 2 2 1 1 3 3 3 3 4 4 3 4 5 6 8 8 9 10 11 10 10 10 10 10 9 8 8 6 4 4 4 3 3 3
10 10 9 8 9 10 11 10 9 8 7 8 9 8 9 10 11 10 10 11 12 11 12 12 12 12 11 9 8 10 12 11 9 9 9 8 8 8 8 8 8 7 6 6 5 4 3 3 3 2 1 1 2 3 4 4 3 4 4 5 4 4 3 3 4 4 4 5 6 7 8 9 8 9 10 10 11 11 9 6 6 6 4 4 3
12 12 11 9 9 11 13 11 10 8 8 10 10 10 10 9 12 11 10 13 14 12 13 14 13 12 11 10 9 9 10 9 9 9 8 8 7 8 8 8 7 7 7 6 6 5 3 2 2 2 2 2 4 5 6 4 4 5 5 5 4 5 4 4 4 4 4 4 4 3 3 4 6 7 8 8 10 12 11 9 8 8 7 6 5
12 12 11 10 10 11 13 12 10 9 10 11 11 12 11 10 12 13 14 14 14 13 14 14 14 14 12 12 10 9 8 7 7 7 7 7 8 7 7 7 6 6 7 6 5 5 3 2 1 1 2 3 4 4 4 4 4 4 4 4 5 6 7 6 5 5 4 4 5 6 5 4 3 2 4 5 7 8 9 9 9 8 8 7 7
9 8 7 8 9 11 13 12 10 10 10 10 12 12 11 11 13 15 16 16 16 15 14 16 17 15 13 12 11 9 8 7 6 6 5 6 7 7 6 5 4 4 5 6 6 5 3 1 1 2 2 3 4 4 4 4 4 4 3 4 5 7 8 8 7 7 6 5 4 5 6 6 6 4 2 2 3 4 5 7 8 8 8 7 7
8 7 6 8 9 10 11 11 11 10 10 9 10 12 12 11 14 16 17 18 19 17 17 18 17 13 11 11 11 10 8 7 6 5 4 4 5 6 5 4 4 2 2 3 3 3 3 2 3 4 5 5 5 6 5 5 5 4 4 4 6 8 8 7 7 7 6 5 5 4 4 5 5 5 4 4 3 2 4 5 6 7 7 7 7
8 8 7 8 9 9 10 11 11 11 10 10 10 12 13 12 15 17 17 19 19 19 20 16 12 11 11 9 8 9 10 9 8 6 4 4 5 5 4 4 3 0 3 3 4 4 4 5 6 6 7 7 6 6 6 6 7 6 5 5 6 8 8 7 7 7 7 6 5 5 4 4 3 4 4 3 5 4 4 6 6 6 5 6 7
8 8 8 8 8 9 9 10 11 11 11 11 11 12 13 13 15 17 18 18 18 19 17 10 10 14 11 6 3 4 8 8 8 7 5 5 5 5 4 3 2 3 5 6 6 6 7 8 9 9 8 7 7 7 7 7 7 7 7 6 6 7 8 8 8 9 9 9 8 7 6 7 7 6 6 5 1 4 5 7 8 7 6 5 6
8 8 8 8 8 7 8 9 11 12 12 12 11 11 13 14 15 16 18 19 17 18 13 8 13 14 7 3 1 2 3 4 8 8 6 6 5 6 6 5 5 6 7 8 8 7 8 9 9 9 8 7 7 7 7 7 7 6 6 7 6 6 8 9 9 10 11 11 11 11 11 11 10 8 8 9 5 1 3 5 6 7 7 7 7
9 9 8 8 8 7 8 9 10 11 12 12 10 10 12 14 15 15 18 18 18 17 12 9 13 10 5 5 3 2 2 3 6 7 6 7 6 6 7 7 6 6 7 9 9 8 8 9 9 8 8 8 8 8 7 7 7 7 7 8 8 8 9 11 10 11 12 12 13 13 13 12 12 12 11 11 10 8 6 4 3 4 5 6 7
9 9 8 8 8 8 9 9 9 11 11 11 10 10 12 14 15 15 16 16 17 18 13 12 14 8 4 5 2 2 7 7 5 3 5 8 8 8 8 8 6 5 7 8 8 9 9 9 9 9 9 9 8 8 8 8 8 9 9 9 10 10 10 11 12 12 12 13 14 14 15 15 15 16 15 14 13 12 10 9 8 6 6 7 6
9 9 9 8 8 9 10 9 8 9 10 11 10 10 12 14 14 15 15 14 15 17 15 15 15 8 4 4 1 6 14 11 6 4 4 6 8 10 9 7 5 5 7 9 9 10 10 9 9 10 9 9 8 8 9 9 10 11 11 11 11 11 10 10 12 13 14 14 15 16 16 17 17 17 17 16 16 15 13 12 10 9 8 8 8
9 10 9 9 8 9 9 8 7 7 8 9 9 10 12 13 13 14 15 14 13 15 16 18 17 10 6 3 3 10 15 11 11 11 6 3 6 8 9 8 7 8 9 9 10 9 9 8 9 9 9 9 8 8 9 10 11 12 13 13 13 13 12 11 12 13 15 15 15 16 16 16 16 16 15 15 15 14 14 13 12 12 12 11 9
10 10 10 10 9 8 8 6 5 5 6 6 7 9 11 11 12 13 15 15 14 15 16 19 19 13 8 6 9 14 13 10 14 14 8 6 4 4 8 10 9 9 10 10 9 8 8 8 7 7 8 8 8 8 9 10 11 12 13 13 13 14 14 14 14 14 15 15 15 15 15 15 14 14 14 13 13 12 12 12 11 11 11 11 10
11 11 10 9 9 8 7 6 5 5 4 5 6 8 9 10 11 11 13 14 15 16 15 18 19 15 11 11 15 17 12 9 11 13 11 8 6 6 11 12 9 9 10 11 9 7 7 7 6 6 7 8 8 9 10 11 12 12 13 14 16 17 18 18 18 18 18 18 17 17 17 16 16 15 14 14 13 12 11 11 10 10 9 9 9
10 9 8 8 9 8 6 4 4 5 5 5 6 8 8 9 10 10 10 11 13 15 14 16 19 16 12 12 18 20 16 13 14 16 13 10 8 8 10 13 12 10 11 10 9 8 7 6 6 6 7 8 9 9 11 12 13 15 16 19 20 21 22 22 22 21 20 19 19 18 18 18 17 17 16 15 15 14 13 12 11 10 9 9 9
9 8 9 8 7 5 4 3 3 6 8 6 7 8 7 8 10 10 9 9 10 13 13 15 17 17 14 12 16 19 18 17 19 19 17 18 16 10 10 14 10 8 11 11 10 9 7 7 7 8 8 9 10 11 13 14 16 18 20 22 23 23 23 23 23 23 23 22 21 20 20 20 20 19 17 16 15 15 14 14 13 13 12 11 10
9 9 9 8 6 3 3 3 2 6 10 8 7 8 8 9 10 10 9 9 10 11 13 14 16 17 16 13 15 17 16 18 20 18 18 24 23 14 12 13 10 8 11 11 10 9 7 6 7 9 10 10 11 12 15 17 19 20 20 20 20 20 20 21 22 22 23 23 23 23 22 22 23 23 22 21 19 18 16 16 16 15 15 14 13
9 9 8 8 6 4 4 4 3 6 9 9 8 9 10 10 10 11 10 10 11 11 12 14 14 15 16 15 16 16 15 18 21 19 20 25 25 21 14 9 10 13 9 7 9 7 6 6 7 8 9 9 10 13 16 18 18 18 17 16 15 16 17 18 19 20 20 21 21 22 21 22 23 24 25 26 25 23 20 19 18 18 18 17 15
7 7 7 7 6 6 6 5 4 5 7 8 9 10 10 11 11 11 10 10 11 11 12 13 13 14 16 17 17 15 14 19 21 19 21 25 25 27 23 11 6 7 6 6 8 6 5 8 7 7 8 8 9 12 14 15 15 15 14 13 13 14 14 15 16 16 17 18 18 19 19 19 20 21 23 25 26 26 24 22 20 20 20 19 17
7 6 7 7 6 7 7 6 5 5 5 6 7 9 10 10 11 11 11 11 10 9 9 11 11 12 15 16 16 16 14 18 22 19 21 26 25 27 28 22 12 4 2 5 6 5 7 9 7 7 8 8 9 11 12 13 13 13 12 12 12 12 13 13 13 14 14 15 15 16 16 17 18 19 20 21 22 23 25 25 24 21 19 19 18
7 8 9 8 7 6 6 7 7 5 6 7 7 8 9 10 11 11 11 10 10 9 9 10 11 11 14 14 15 16 15 17 21 19 21 26 27 26 25 24 20 11 3 3 5 7 10 10 7 7 9 9 10 11 11 11 12 12 11 11 11 11 11 11 11 12 12 11 12 12 13 14 15 16 17 17 18 19 21 24 25 23 19 17 16
8 9 10 9 7 6 7 8 7 5 6 8 8 8 9 10 11 11 10 10 10 11 10 11 12 12 13 15 16 19 18 19 19 18 22 27 27 26 22 21 22 17 10 7 5 9 14 12 9 9 11 11 11 11 11 11 11 10 9 9 9 8 8 8 8 9 9 9 9 9 10 11 12 13 14 14 15 16 19 22 24 23 18 15 14
9 10 10 9 8 7 8 8 7 5 5 7 8 9 9 10 11 12 11 10 10 12 12 14 14 13 13 14 17 20 21 22 22 19 23 27 25 25 23 21 21 18 16 13 5 8 16 14 11 12 12 12 11 11 11 10 10 9 8 7 5 5 5 5 5 5 6 6 6 6 7 8 9 10 11 11 12 14 17 20 22 20 16 12 12
11 12 11 10 9 8 8 8 8 6 5 7 8 9 10 10 11 12 11 11 12 14 15 17 16 14 13 12 13 17 20 23 25 23 24 26 24 24 24 23 21 17 17 16 9 9 17 15 11 12 13 12 11 10 11 10 10 9 7 6 5 4 3 3 3 2 3 4 4 4 5 5 6 7 8 9 12 15 17 18 18 16 13 10 9
11 11 11 10 9 8 8 8 9 8 6 7 8 9 10 11 12 12 12 13 14 15 16 17 16 14 13 12 11 13 17 21 25 25 25 25 24 24 24 23 23 20 17 17 12 10 15 16 13 12 14 14 12 10 10 9 9 8 7 7 6 5 4 2 1 1 1 2 2 3 2 2 2 4 6 10 14 16 16 16 14 13 11 10 8
11 10 10 10 9 8 8 9 10 9 7 7 8 9 10 11 12 11 11 13 15 15 15 15 14 15 15 14 13 13 15 19 23 25 25 25 24 25 26 25 25 23 19 17 14 12 15 17 15 14 15 15 14 12 11 9 8 6 5 5 5 6 6 4 3 2 1 1 2 1 1 0 1 2 7 11 14 14 13 12 11 10 10 9 8
10 9 9 10 10 9 9 9 11 10 8 7 8 9 10 10 11 11 10 12 13 14 14 13 13 14 16 17 17 16 16 17 19 21 22 23 23 24 26 27 27 26 22 19 15 14 17 18 16 16 16 15 15 13 11 10 9 8 6 5 5 6 7 6 4 4 3 2 2 2 1 2 2 5 8 10 11 11 11 10 9 8 8 8 8
9 9 9 10 10 10 10 10 11 11 9 8 8 8 10 10 10 11 11 12 13 13 12 13 14 15 16 18 18 18 18 18 18 19 18 18 18 19 22 25 28 26 23 20 16 14 17 18 17 17 16 15 14 12 12 12 12 12 10 7 6 7 8 8 7 6 4 4 4 3 3 3 5 7 8 8 9 10 9 9 8 6 6 7 7
9 10 9 9 10 10 11 11 11 11 10 9 9 9 10 10 11 11 12 13 13 13 12 12 14 15 16 17 17 16 17 18 18 17 17 15 14 14 16 19 23 24 22 20 16 15 17 18 19 18 17 15 13 12 13 13 13 13 11 8 7 8 9 10 9 6 5 5 4 3 3 5 7 6 6 7 8 8 8 8 7 7 7 8 7
11 11 10 9 9 10 12 12 11 11 10 9 9 9 11 12 12 12 13 14 13 13 13 12 12 13 15 15 15 15 15 16 16 16 16 15 13 13 14 15 18 21 20 18 16 16 17 18 18 18 18 17 15 14 13 13 12 13 11 9 9 10 11 11 9 7 6 6 3 1 5 7 6 5 7 8 9 9 9 9 8 8 9 9 9
13 13 11 10 10 10 11 12 13 11 11 10 10 11 12 12 12 13 14 15 14 14 15 13 12 12 13 13 13 13 13 14 14 14 14 14 14 14 14 15 17 19 18 16 16 16 16 16 17 17 18 18 17 16 14 11 10 11 13 13 12 12 11 10 9 8 7 4 0 4 6 5 4 6 7 8 8 7 7 7 8 8 9 9 9
15 14 13 12 12 11 11 11 12 12 12 12 12 12 13 13 12 13 16 18 17 15 15 15 14 13 13 12 12 12 12 12 12 13 13 14 15 15 15 15 15 16 16 15 16 16 16 16 16 17 17 17 17 16 14 12 11 12 15 16 15 15 13 10 9 9 6 2 2 5 5 4 5 6 6 6 6 6 6 7 8 9 10 10 11
16 15 14 13 13 13 13 13 13 12 12 13 12 12 13 13 13 14 16 18 19 18 17 17 17 16 16 15 14 14 13 13 12 12 12 13 15 16 16 16 15 15 15 15 15 15 16 16 16 16 17 17 17 16 15 15 14 14 16 17 16 15 13 10 9 7 4 2 4 6 6 7 7 6 5 5 6 7 8 9 10 12 13 13 14
15 15 15 13 13 13 13 14 14 13 13 13 13 12 13 14 14 15 17 19 19 19 19 19 19 19 19 18 17 17 16 16 15 14 14 13 14 14 15 16 17 17 16 16 15 15 15 16 16 16 17 18 18 17 17 16 16 15 16 18 17 15 12 9 7 5 3 4 6 7 7 6 6 5 5 6 7 8 10 11 12 13 14 15 15
13 16 15 14 14 13 12 13 15 16 14 14 14 14 14 15 15 15 17 20 21 20 20 21 21 21 20 20 18 17 17 17 17 16 16 15 15 14 14 15 16 17 16 16 16 15 16 16 16 16 17 18 18 16 16 16 15 14 16 18 17 15 12 9 6 4 3 5 6 6 5 3 2 4 5 7 8 9 11 12 12 14 15 16 16
8 12 14 14 14 14 13 13 15 17 16 15 15 15 15 16 17 17 17 20 22 22 22 23 23 23 22 22 20 19 18 18 18 18 17 17 17 16 15 15 15 15 16 16 16 16 16 16 17 17 18 18 17 16 16 16 15 15 15 15 15 13 10 7 6 4 2 4 6 5 3 0 1 3 5 7 9 10 11 12 13 15 16 16 16
3 4 7 9 11 12 12 12 14 16 18 19 19 19 18 18 19 20 20 21 23 24 25 25 25 24 24 24 24 23 22 21 21 20 20 19 18 17 17 17 16 16 16 17 17 17 17 18 19 20 20 19 18 17 16 16 16 17 16 14 12 10 7 5 4 3 1 3 4 3 1 2 2 3 4 6 8 10 11 12 14 15 15 15 17
4 3 2 3 5 6 6 7 8 10 12 14 17 20 21 22 23 24 24 24 25 26 27 28 28 26 25 26 27 27 26 25 25 25 24 23 22 21 20 20 20 19 18 19 19 19 19 19 20 21 21 21 20 18 16 16 17 17 16 14 10 7 5 4 3 2 1 0 1 1 2 3 3 4 5 7 9 11 12 13 14 14 14 17 19
3 1 1 2 3 4 4 5 7 7 7 7 10 12 15 17 20 23 26 28 29 29 29 29 30 30 28 27 28 29 29 28 28 28 27 27 25 24 24 24 23 22 21 21 21 20 20 20 21 21 21 20 20 18 17 17 16 14 13 10 8 7 6 5 5 4 3 1 1 0 3 4 4 6 7 9 11 13 14 14 13 12 14 18 18
7 4 2 2 3 4 5 8 10 11 9 8 8 10 11 12 14 17 21 26 29 31 32 32 32 32 32 31 31 31 32 31 31 31 31 30 29 28 28 26 24 22 21 21 20 20 20 19 18 18 18 18 18 17 18 17 15 12 10 9 8 8 8 8 7 5 3 1 1 0 1 3 4 7 9 12 13 14 13 12 11 12 16 18 16
10 8 7 7 6 5 3 5 7 9 8 8 9 10 11 12 13 14 16 19 23 26 29 31 33 34 35 35 35 35 35 35 35 35 34 33 32 30 27 22 20 20 20 21 21 20 19 17 15 13 12 13 15 16 17 15 12 10 9 9 10 10 9 9 7 5 4 3 2 1 2 3 5 7 10 13 14 14 13 10 10 13 16 16 14
10 9 9 8 7 7 5 4 6 6 7 7 9 9 10 10 11 12 14 17 20 22 24 26 29 32 34 35 35 36 37 38 37 37 37 37 35 32 27 21 20 23 23 22 22 20 17 14 12 11 13 15 16 16 14 11 9 8 8 8 10 10 9 8 6 6 5 4 2 3 4 4 5 8 12 14 14 14 12 10 12 16 16 14 13
11 10 9 8 8 8 7 7 8 8 8 8 8 9 10 10 11 11 12 15 18 21 23 25 26 27 29 31 33 35 37 38 38 37 39 36 30 26 24 23 24 27 27 24 22 20 16 14 14 15 17 17 15 13 12 10 10 9 7 7 9 9 8 7 7 6 5 4 2 4 6 5 6 9 12 12 10 10 11 13 17 18 15 13 14
Wind_Direction
173 162 158 159 157 150 142 135 126 118 115 114 117 122 132 142 145 142 125 111 111 119 122 127 135 145 150 151 151 150 150 152 155 156 152 146 147 150 152 148 122 117 113 103 105 112 106 85 71 74 82 85 88 93 91 84 79 75 74 75 74 75 75 76 75 74 76 75 77 79 79 81 80 77 73 70 66 67 85 85 70 66 60 62 75
180 166 165 165 158 155 152 142 131 126 119 116 124 125 126 138 144 144 132 122 119 123 130 138 146 154 159 156 150 148 152 155 156 156 150 142 141 146 147 135 114 112 114 110 109 114 116 104 82 74 77 81 79 81 83 80 76 72 71 70 69 72 74 74 73 71 69 65 68 69 66 74 79 79 80 79 69 62 78 85 76 69 57 56 73
190 178 173 173 163 163 164 155 149 143 131 123 127 131 131 136 139 140 136 133 129 128 138 150 161 167 167 160 149 144 149 154 156 158 153 143 139 141 142 134 123 119 119 105 96 108 118 107 88 75 72 75 69 67 74 75 73 70 66 63 61 64 69 68 68 70 69 64 64 64 63 64 65 74 81 81 77 68 70 78 77 75 66 56 69
199 192 185 182 176 177 177 167 157 146 140 136 133 141 146 140 136 136 135 136 133 132 142 156 169 174 171 159 149 145 147 154 159 159 157 152 145 143 144 145 142 135 128 113 87 99 106 94 90 78 71 77 70 63 73 75 71 68 62 56 54 55 59 62 64 66 68 68 61 59 59 53 49 60 70 74 79 77 74 75 74 78 77 59 64
203 200 195 188 185 187 187 174 154 139 136 140 144 152 154 144 136 131 130 136 137 139 151 160 168 173 169 158 152 151 150 155 159 159 161 161 157 153 153 155 155 149 142 137 106 99 102 96 94 88 84 93 88 69 70 70 66 61 54 49 47 46 50 54 57 59 62 64 59 60 56 44 41 41 41 52 64 67 74 72 68 75 77 63 62
204 205 199 190 190 191 194 181 152 133 131 142 153 156 155 148 140 131 128 137 144 151 167 169 170 169 165 162 161 158 153 152 155 159 165 165 164 160 155 157 161 162 160 152 135 122 119 119 117 110 102 107 107 71 54 56 51 42 37 40 44 44 45 47 49 50 54 57 55 57 55 42 37 36 29 23 24 41 58 53 51 60 65 64 60
206 208 203 191 192 193 195 188 156 134 137 151 161 158 153 148 144 134 129 139 148 156 169 169 170 171 165 165 166 161 157 155 154 157 161 160 161 160 154 154 159 163 165 160 155 154 152 149 147 145 144 140 140 124 49 45 31 18 1 359 27 39 40 43 45 44 45 50 49 48 47 42 41 43 34 24 16 15 19 29 39 46 58 66 63
207 206 206 193 190 197 199 193 167 146 144 156 161 159 152 145 143 138 132 140 153 156 162 162 162 164 159 159 157 156 161 160 156 156 156 154 153 155 157 159 161 162 164 168 173 177 171 162 164 164 166 172 181 219 12 18 357 346 336 338 352 5 13 24 35 39 36 40 43 39 36 34 36 38 37 36 31 23 17 10 16 25 38 43 53
208 203 203 188 184 198 202 195 173 153 148 156 156 155 156 148 141 142 140 147 158 154 150 153 153 149 145 144 143 151 163 165 163 162 156 152 151 157 163 163 165 165 168 177 186 198 197 168 185 210 226 292 341 10 30 26 352 343 348 351 348 331 318 326 342 355 3 14 27 28 25 23 24 28 29 34 33 29 29 22 17 22 22 20 18
213 200 192 182 181 194 200 193 172 155 151 156 153 150 158 154 140 142 149 152 159 154 143 145 144 139 132 126 127 144 163 171 175 175 166 159 160 168 170 164 165 165 170 185 191 200 209 194 206 244 306 342 357 15 30 21 1 14 15 0 355 348 339 335 325 312 307 307 311 315 334 360 13 20 16 22 31 28 29 29 27 26 24 22 16
219 200 184 176 177 188 195 188 174 161 154 156 157 155 160 158 144 145 150 148 152 151 142 138 134 131 124 113 113 125 139 149 160 170 175 176 182 192 189 178 180 178 179 188 194 197 197 206 251 301 324 342 350 1 14 359 353 20 24 7 10 14 11 9 0 351 343 316 294 285 280 289 310 1 7 6 24 24 18 20 22 23 22 20 17
222 210 188 170 169 183 191 185 178 170 160 159 163 164 163 160 151 150 149 141 142 145 143 140 131 123 118 114 116 116 117 122 132 148 163 177 191 211 220 209 206 195 184 185 190 195 180 159 30 28 19 16 23 30 35 25 13 10 2 3 19 27 25 20 17 15 10 355 337 321 305 294 287 284 289 305 355 11 360 5 11 11 10 13 15
216 214 193 173 171 180 188 185 182 179 168 161 167 170 167 164 158 156 153 144 142 143 143 140 130 118 113 110 110 107 106 112 117 125 142 158 178 198 216 234 245 218 159 159 161 164 145 109 72 68 66 52 47 49 49 52 54 39 17 16 32 40 34 27 25 21 17 9 5 0 337 319 306 300 285 256 247 293 315 330 346 352 355 358 3
201 197 185 177 174 176 185 186 184 185 174 161 168 174 170 171 166 159 158 154 150 149 147 141 129 127 122 104 91 92 94 97 98 93 111 141 155 172 196 230 252 54 87 90 88 84 87 99 94 80 71 62 58 56 57 60 63 63 57 49 48 52 47 39 36 32 34 32 21 18 8 1 352 332 323 277 229 231 264 277 294 313 332 339 344
182 183 180 173 168 172 180 184 186 188 181 166 167 174 172 175 174 166 162 158 157 159 158 154 142 136 124 102 83 87 85 82 82 83 102 129 143 155 166 182 156 96 94 98 92 83 88 97 92 82 71 64 65 62 58 56 56 59 67 69 65 62 56 48 47 50 55 56 49 48 51 45 37 24 18 20 231 227 244 255 271 286 298 313 325
167 169 175 169 164 171 176 183 187 189 188 176 171 174 173 176 178 174 168 160 160 166 172 173 156 145 119 93 90 86 92 85 75 71 93 117 123 134 140 135 116 103 101 102 102 100 100 94 82 75 72 67 65 60 56 55 54 60 70 78 79 75 66 57 56 63 65 64 60 58 57 53 46 42 45 51 60 59 271 269 274 282 290 301 305
157 157 163 166 163 168 175 180 184 188 192 187 182 181 177 179 182 183 177 169 167 172 180 180 167 157 124 117 101 63 189 154 97 67 78 107 112 118 127 128 114 104 103 107 110 106 99 90 79 74 73 71 67 63 65 67 66 69 74 80 83 84 77 69 66 67 68 68 66 63 59 59 59 59 63 67 70 71 59 40 17 347 338 333 316
151 151 154 161 161 164 172 176 180 188 193 192 192 191 183 181 184 187 186 182 177 176 179 178 173 166 141 141 129 179 169 149 119 66 67 90 102 112 123 128 116 105 112 116 116 109 100 88 78 77 77 75 75 75 76 79 80 78 78 82 86 88 86 81 78 74 72 73 73 74 73 72 72 70 70 73 75 78 75 68 58 47 33 24 16
147 149 152 156 155 156 163 169 176 188 193 191 192 195 189 185 186 188 191 193 189 184 182 179 177 177 175 178 264 178 162 152 150 148 96 75 90 105 119 124 110 107 123 124 118 109 99 84 77 79 82 81 82 84 85 85 85 84 83 85 87 91 92 91 91 86 81 79 77 78 77 75 75 74 74 74 75 77 76 75 70 64 59 52 50
146 148 148 148 147 148 155 162 170 181 189 189 187 187 187 189 192 193 196 199 201 198 190 185 185 183 174 179 191 169 160 156 156 145 124 91 92 97 109 118 116 118 121 119 114 106 93 82 80 82 85 88 87 87 90 89 89 89 88 88 88 90 90 88 90 90 86 82 79 78 77 76 75 74 74 73 73 73 71 70 67 64 63 63 61
142 139 135 133 133 135 142 150 163 176 188 192 188 184 186 192 194 196 201 204 209 212 202 195 193 187 177 161 150 154 148 143 149 138 122 129 128 107 114 116 116 122 129 125 118 109 91 78 79 86 91 95 96 95 96 95 94 94 92 92 91 91 89 85 81 82 82 80 77 76 75 75 74 72 72 70 69 68 66 64 62 60 59 60 59
137 134 131 130 128 126 128 135 154 172 186 195 191 185 188 192 194 197 204 208 212 215 214 208 199 190 186 167 151 151 144 138 148 137 121 116 119 133 135 131 125 131 145 143 132 119 96 79 77 92 102 101 101 102 101 99 98 98 97 96 94 92 88 85 80 77 76 75 72 70 68 68 68 66 65 63 61 60 59 57 55 54 53 52 53
142 140 137 135 133 129 123 126 154 169 172 182 188 188 187 189 193 198 204 211 214 215 216 213 201 190 190 180 168 168 166 165 164 150 137 127 122 128 135 136 134 140 158 159 145 132 108 90 86 96 106 105 105 107 106 105 104 103 103 99 95 92 87 82 79 75 72 71 69 67 64 61 60 59 58 57 56 54 53 52 50 47 45 44 42
155 151 146 143 141 137 138 144 171 175 168 168 182 190 192 190 192 198 202 206 212 213 209 205 201 193 190 192 184 182 182 179 170 159 155 148 138 129 132 137 132 139 161 163 153 142 123 100 95 105 111 107 109 113 111 111 110 108 106 102 95 89 85 80 76 73 69 68 67 65 62 58 55 53 51 50 50 49 49 47 46 45 42 40 37
157 154 151 151 153 156 167 178 194 180 173 173 184 193 200 196 193 195 196 192 193 199 198 196 198 196 192 196 194 187 186 183 174 165 159 149 138 131 139 146 140 140 155 161 157 155 146 120 106 114 117 109 109 116 116 114 112 111 108 103 96 88 83 78 73 70 68 67 66 64 61 58 55 52 50 48 46 45 46 46 43 41 39 37 37
150 149 151 153 157 163 179 188 186 178 177 183 194 200 205 203 196 195 192 186 184 187 190 189 191 195 195 198 196 188 184 183 178 170 163 154 144 139 138 137 136 141 150 166 165 167 170 151 130 125 124 116 113 118 121 118 114 113 110 103 97 88 82 77 71 68 66 65 64 63 60 57 54 51 49 47 45 44 44 44 41 38 35 34 35
154 153 154 156 160 163 173 183 183 180 182 190 200 201 203 203 198 195 192 190 189 187 189 189 189 193 195 197 197 192 186 184 182 178 175 170 160 152 148 136 126 142 147 164 177 195 197 174 155 141 134 126 125 127 127 124 118 116 112 103 95 88 84 78 71 67 65 62 61 59 57 55 52 48 46 44 43 42 39 37 34 32 31 32 35
169 170 166 166 167 166 170 177 180 183 184 194 203 196 192 196 192 190 190 191 193 189 186 187 188 190 192 196 199 194 190 189 188 189 187 183 176 167 160 152 147 149 137 159 192 216 197 184 176 164 152 135 135 138 137 135 127 119 115 108 99 93 88 81 73 69 65 60 58 57 54 52 49 46 43 40 38 36 34 30 25 21 22 26 31
177 174 172 173 176 178 180 177 175 185 194 197 201 191 186 188 185 182 182 182 183 181 175 175 178 183 188 195 197 193 191 192 193 195 193 186 181 176 173 165 157 151 141 176 203 198 186 191 189 170 162 152 146 146 144 144 139 129 122 114 105 99 93 85 76 72 68 61 55 54 53 51 48 44 40 37 32 28 24 21 17 13 10 13 19
182 174 175 181 185 188 182 171 168 186 202 196 192 189 187 187 185 182 180 179 177 175 171 168 166 171 182 187 189 190 191 189 190 192 188 184 181 179 182 179 169 162 162 171 200 196 188 191 189 174 164 156 155 156 152 150 150 146 138 124 113 105 99 92 83 76 73 64 52 48 51 52 49 44 39 33 27 20 13 9 8 6 2 2 6
188 182 181 184 187 187 179 168 166 176 193 192 191 195 196 194 192 188 185 182 173 166 164 161 157 159 172 180 184 188 190 188 189 190 186 183 184 185 186 186 183 180 174 166 168 200 196 194 187 179 168 156 155 162 161 157 157 158 155 149 139 121 106 99 95 87 76 66 55 45 44 50 51 43 35 29 20 11 4 1 1 1 358 356 357
189 186 186 188 189 192 184 173 172 171 176 182 187 195 197 196 192 186 184 178 163 156 156 155 152 152 157 165 179 187 189 190 190 191 191 190 190 192 194 194 194 195 186 173 164 187 197 199 194 186 178 169 164 163 164 166 168 170 173 177 185 178 139 109 101 101 85 72 59 44 38 46 49 38 27 17 9 2 358 357 359 360 358 354 352
194 193 192 194 196 198 189 179 179 179 180 183 182 186 187 185 183 178 176 173 162 156 157 155 152 153 153 152 162 179 187 193 194 191 192 195 197 199 202 203 202 203 196 182 170 171 190 200 204 197 189 187 187 180 175 177 179 182 188 197 212 217 202 170 148 159 114 83 64 53 41 32 42 36 16 3 360 358 356 356 359 2 2 356 348
204 207 205 201 197 193 185 182 185 186 193 195 191 190 188 185 183 179 176 175 169 164 164 162 158 157 158 155 152 160 174 187 193 193 193 197 201 205 208 210 209 208 203 194 180 173 186 200 207 204 197 198 201 198 195 195 195 193 198 214 227 232 229 219 203 210 193 102 88 87 62 52 103 17 2 360 358 355 353 353 356 2 4 359 347
212 214 210 204 199 194 189 189 190 192 201 208 205 202 199 197 195 194 190 185 181 177 177 178 174 167 163 159 154 155 160 170 181 187 192 199 205 212 214 214 213 211 207 204 198 188 190 197 205 205 202 204 208 208 210 215 217 215 219 234 240 238 234 219 198 199 199 181 164 150 128 94 55 11 3 0 353 346 341 340 344 356 5 4 357
213 207 205 207 206 202 197 198 200 200 206 212 212 208 206 207 206 203 199 194 191 191 193 192 188 182 174 166 161 161 164 166 171 178 185 192 200 209 214 215 215 213 207 206 211 208 198 196 202 205 205 208 213 216 221 229 234 233 236 244 239 230 220 197 184 189 191 187 174 143 103 47 19 6 360 349 338 334 332 330 330 337 352 3 7
210 206 209 212 211 207 202 201 203 204 207 213 215 214 214 214 212 207 201 197 199 203 203 197 191 190 186 179 173 173 174 172 172 177 182 185 188 194 202 210 213 210 205 205 214 216 206 200 201 204 208 213 218 224 230 239 241 235 233 235 223 206 194 182 180 184 176 167 154 125 46 13 8 360 346 333 329 328 325 324 327 332 342 351 357
211 210 212 210 210 210 208 207 207 205 206 214 218 221 219 216 215 213 207 204 208 211 206 199 195 194 194 191 187 186 188 186 183 183 186 188 188 187 189 196 201 201 202 207 214 215 212 208 205 205 210 215 221 226 232 241 242 230 217 206 193 184 182 180 176 167 160 159 148 48 3 0 356 335 323 324 327 327 325 325 330 339 347 350 349
210 211 212 210 209 210 211 212 213 211 212 217 218 218 220 220 221 218 212 210 214 213 209 205 205 203 200 200 198 196 200 204 198 194 193 194 193 192 190 190 192 196 202 211 215 214 215 214 210 209 212 216 222 226 229 235 235 225 211 195 180 175 179 181 173 165 163 167 270 348 352 348 328 318 321 325 330 333 335 338 342 346 351 352 350
209 213 217 217 217 220 221 220 217 216 217 219 220 221 221 221 221 218 212 213 216 216 214 214 218 219 217 216 215 212 212 214 210 205 202 200 198 197 196 196 197 201 204 208 212 216 220 219 217 218 218 220 224 227 228 225 218 216 211 202 189 179 178 176 170 173 181 200 321 340 346 340 335 336 332 333 345 353 354 354 353 352 351 348 345
211 219 224 225 228 232 233 232 227 220 218 220 225 228 225 220 222 221 216 216 220 221 222 223 224 226 227 228 230 232 229 225 223 220 215 211 208 206 205 206 208 208 206 206 209 215 218 219 221 222 222 225 229 230 229 226 224 222 214 205 193 183 180 179 174 183 213 282 328 342 351 348 349 352 340 339 359 3 355 353 353 353 352 348 345
213 219 225 231 237 239 238 237 231 224 220 223 228 231 231 231 234 232 226 225 227 229 230 228 226 228 231 233 236 239 236 232 230 229 225 222 220 218 215 213 211 210 207 207 210 213 215 218 220 220 221 225 229 231 233 233 232 227 214 202 191 181 178 179 179 200 264 313 330 344 358 354 347 347 344 352 6 2 354 353 354 352 351 349 347
219 221 227 234 236 236 239 237 232 230 229 231 233 234 236 240 241 240 236 232 231 233 233 231 232 236 238 239 240 239 236 232 231 232 231 229 227 225 222 219 215 214 214 216 218 218 219 222 222 221 223 228 229 227 229 230 226 218 208 200 191 182 180 183 188 213 270 313 330 350 14 17 337 330 339 352 2 359 353 352 349 346 345 345 343
219 226 232 237 235 232 236 239 236 235 236 236 238 238 239 240 241 242 242 239 235 234 234 235 240 245 246 246 245 241 237 236 236 235 234 233 233 232 231 230 228 227 228 230 232 231 231 233 233 232 233 234 231 226 225 224 217 204 196 194 190 186 190 195 192 195 251 317 329 345 11 59 287 307 322 337 347 350 348 344 341 340 340 340 338
143 185 215 228 231 230 234 240 242 242 241 241 241 240 240 239 238 238 238 240 239 239 240 241 244 248 251 250 247 244 242 241 241 241 240 238 237 238 239 240 239 237 237 239 241 241 243 243 241 243 244 242 239 235 230 222 212 200 191 188 188 189 193 192 181 183 270 319 329 336 275 218 276 305 317 330 339 345 343 337 335 336 336 337 336
118 123 169 207 215 220 229 237 241 242 243 246 247 246 245 243 241 239 238 239 240 243 246 248 248 250 252 250 247 245 244 242 242 242 242 241 240 240 241 242 242 243 244 246 248 249 248 247 246 249 251 250 249 244 231 218 212 204 195 189 188 188 185 176 173 181 193 205 2 334 214 222 272 306 319 332 337 340 338 333 330 331 334 337 338
92 97 285 276 258 255 263 260 254 252 253 261 265 262 259 256 253 249 246 243 243 244 246 248 250 251 252 251 248 247 247 246 245 244 243 241 240 240 242 243 242 244 247 250 253 254 254 253 253 254 254 254 251 242 224 209 204 202 197 192 190 186 173 163 163 164 163 163 4 304 208 225 272 303 315 324 330 331 333 329 323 322 331 337 340
75 81 69 7 335 304 281 272 271 271 276 290 295 289 285 282 275 266 258 252 249 247 246 246 247 249 250 251 250 251 251 250 250 250 247 243 241 241 241 240 240 244 249 253 255 255 256 256 256 257 258 253 243 227 210 200 196 196 194 183 175 172 164 156 158 165 172 194 265 241 210 246 286 308 316 321 324 327 330 327 313 315 330 337 342
59 58 54 42 29 11 318 290 289 283 281 296 305 303 302 299 292 284 277 269 261 255 252 251 249 249 249 249 250 251 252 253 255 253 247 241 239 238 237 238 245 253 254 255 256 255 255 255 254 252 243 226 210 198 193 194 196 198 194 179 171 172 168 162 166 176 184 196 212 308 329 306 307 318 321 323 325 327 332 329 313 318 332 338 340
42 39 36 34 32 25 7 345 332 312 295 297 300 301 306 308 301 294 290 286 278 271 267 263 258 255 253 251 251 251 251 254 255 252 246 242 236 232 232 236 248 257 259 259 259 257 252 245 236 219 201 191 187 187 188 190 187 189 194 186 177 176 174 172 174 175 180 196 223 324 335 322 323 330 332 331 329 329 335 333 322 325 333 337 336
30 26 20 18 19 13 3 352 342 331 322 317 314 313 316 320 315 307 301 295 287 282 280 278 272 267 263 260 258 256 255 254 253 251 250 244 232 226 233 238 243 252 259 259 257 252 241 224 208 196 189 186 184 185 183 177 173 175 181 183 181 183 182 177 176 175 180 195 229 330 336 327 332 338 340 341 335 329 332 328 323 326 333 334 333
Height
822 822 823 824 825 825 825 825 826 827 828 828 829 829 829 829 830 830 831 831 832 832 833 834 834 835 835 836 838 839 840 841 842 843 844 845 846 847 847 848 848 848 848 848 849 849 849 849 850 850 850 851 851 851 851 851 851 851 850 850 850 850 850 849 850 850 850 850 850 850 850 849 849 849 849 849 849 848 848 847 847 847 846 846 846
822 823 824 824 825 825 825 825 826 827 828 829 829 829 829 829 830 831 832 832 832 833 834 834 835 835 836 837 838 840 841 842 843 844 845 846 846 847 848 849 849 850 850 850 850 850 850 851 851 851 851 852 852 852 852 852 853 852 852 851 851 851 850 850 850 850 851 851 851 851 850 850 850 850 850 850 850 849 849 849 849 848 848 847 847
823 824 824 824 825 825 825 826 827 828 828 829 829 829 829 829 830 831 832 833 833 833 834 834 835 835 836 838 839 840 841 842 843 844 845 846 847 848 849 850 851 851 851 851 851 851 851 851 852 852 852 853 853 853 854 854 854 854 853 853 852 852 851 851 851 851 851 851 851 851 851 851 851 851 851 851 851 850 850 850 850 849 849 848 848
824 824 824 824 824 825 825 826 827 828 828 829 829 829 829 830 831 831 832 833 833 834 834 834 835 836 837 839 840 841 842 843 844 845 846 847 848 849 849 850 851 852 852 852 852 852 852 852 852 853 853 854 854 855 855 855 855 855 855 854 853 853 852 852 852 852 852 852 852 852 852 852 852 852 852 852 851 851 851 851 851 850 850 849 849
824 824 824 825 825 825 825 826 828 828 828 829 829 829 830 830 831 832 833 833 834 834 835 835 835 837 838 840 841 841 842 843 845 846 847 848 849 849 850 850 851 852 852 852 852 852 853 853 853 854 854 855 855 855 856 856 856 856 855 855 854 854 853 853 853 853 852 853 853 853 853 853 853 853 853 853 852 852 852 852 852 851 851 850 850
825 825 825 825 825 825 826 827 828 829 829 829 830 830 830 831 831 833 833 834 834 835 835 836 836 838 839 840 841 842 843 844 846 846 847 849 849 850 850 850 851 852 852 852 853 853 853 853 854 854 855 855 856 856 856 857 857 857 856 856 855 855 855 854 854 854 854 854 854 854 854 854 854 854 854 853 853 853 853 853 853 852 852 852 851
825 825 826 826 826 826 826 827 828 829 829 830 830 830 830 831 832 833 834 835 835 835 836 836 837 838 840 841 842 843 844 846 847 847 848 849 850 850 850 851 851 852 853 853 853 853 853 854 854 855 855 856 856 857 857 857 857 857 857 856 856 856 856 856 855 855 855 855 855 855 855 855 855 855 854 854 854 854 854 854 853 853 853 853 852
825 825 826 826 826 826 826 827 829 829 830 830 831 831 831 832 833 834 834 835 836 836 837 837 838 839 841 842 843 844 845 847 847 848 849 850 851 851 851 851 852 852 853 853 853 853 854 854 855 855 855 856 856 857 857 858 858 857 857 857 856 857 856 856 856 856 856 856 856 856 857 856 856 856 855 855 855 855 855 855 854 854 854 853 853
824 825 825 826 826 826 826 828 829 829 830 830 831 831 831 832 833 834 835 835 836 836 837 839 839 841 842 843 844 845 846 847 848 849 850 851 851 851 851 852 852 853 853 854 854 854 855 855 855 856 856 856 857 857 858 859 858 858 857 857 857 856 856 856 856 856 856 857 857 857 857 857 857 856 856 856 856 856 855 855 855 854 854 854 853
823 824 824 825 826 826 826 827 829 830 830 830 831 832 833 833 833 835 835 836 837 837 838 840 840 842 843 844 845 846 847 849 849 850 851 851 852 851 851 852 853 853 854 854 854 855 855 856 856 856 856 857 857 857 859 859 858 858 858 858 857 856 856 856 856 856 857 857 857 856 856 857 857 857 857 856 856 856 856 856 855 855 854 854 854
823 823 824 825 825 826 826 827 828 829 830 831 832 832 833 834 834 835 836 837 838 839 839 840 842 843 844 845 846 847 848 849 850 851 851 851 851 851 851 853 854 854 854 854 855 856 856 856 856 857 857 858 858 858 859 859 858 858 858 858 857 856 856 856 856 856 857 857 856 856 856 856 856 857 857 857 856 856 856 856 856 855 855 854 854
823 823 823 824 825 825 826 827 828 829 830 831 832 833 834 835 835 836 837 839 840 840 841 841 842 844 845 846 847 848 849 849 850 851 851 852 852 851 852 853 854 855 855 855 856 857 856 857 857 857 857 858 858 859 859 859 858 858 857 857 857 856 856 856 856 856 856 856 856 856 855 855 856 856 857 857 856 855 856 856 856 855 855 855 854
823 823 824 825 825 825 825 826 827 828 830 831 833 834 835 835 836 837 837 839 841 842 843 843 842 844 846 847 848 849 850 850 851 851 852 852 852 852 852 854 854 855 855 856 856 857 857 857 857 857 857 858 859 859 859 859 859 858 857 856 856 857 857 857 857 857 856 856 856 856 855 855 855 855 855 855 855 855 855 856 856 856 855 855 855
823 823 824 825 825 825 825 826 827 828 829 831 833 834 835 836 836 837 838 839 841 842 844 844 844 844 845 847 849 851 851 852 852 853 853 853 853 854 854 855 856 856 856 857 856 857 857 857 858 858 858 859 859 860 860 859 859 859 858 857 856 857 857 857 857 856 856 856 856 855 855 854 854 854 854 854 854 855 855 856 856 856 855 855 855
822 823 824 825 825 825 825 826 826 828 829 831 832 834 835 836 837 837 838 839 841 842 843 844 845 845 846 848 850 851 852 853 853 854 854 855 855 856 856 856 857 857 858 858 858 857 858 859 859 859 860 860 860 860 860 859 859 859 859 858 857 857 857 857 857 857 856 856 856 856 855 854 854 854 854 854 854 854 855 855 855 855 855 855 855
821 822 823 824 824 825 825 825 826 827 829 830 831 833 834 836 837 837 838 839 841 842 843 843 844 845 847 849 851 852 854 855 854 855 856 856 857 858 858 858 858 858 859 859 859 859 860 861 861 861 861 861 861 860 860 860 860 860 859 859 859 858 858 858 858 857 857 857 857 856 856 855 854 854 854 853 854 854 854 855 855 855 855 855 855
820 821 823 824 824 825 825 825 826 827 828 830 831 832 834 836 837 838 838 839 840 842 843 843 844 845 846 848 851 852 854 854 855 856 857 858 859 860 860 860 860 860 860 860 861 861 862 862 862 861 861 861 861 861 861 861 860 860 860 860 860 859 859 859 859 859 858 858 858 857 857 856 855 855 854 854 854 854 855 855 855 855 855 855 855
819 821 822 823 824 825 825 825 826 827 828 829 831 832 833 835 837 838 839 840 840 841 842 843 845 846 846 846 848 849 850 852 855 857 858 859 860 861 862 862 862 862 862 863 863 863 863 863 862 862 862 862 862 862 862 861 861 861 861 861 861 861 860 860 860 860 860 859 859 858 858 857 857 856 856 856 856 855 855 855 855 855 855 855 854
819 821 822 823 824 824 825 826 826 827 828 829 830 831 833 834 836 838 839 840 840 841 842 843 844 846 847 847 847 847 848 850 852 854 857 860 861 862 863 864 864 864 864 864 865 865 865 864 864 863 863 863 863 863 863 862 862 862 862 862 862 862 862 862 861 861 861 861 860 860 859 859 859 858 858 857 857 857 857 856 856 856 855 855 855
820 821 822 823 824 824 825 826 826 827 828 829 830 831 832 834 835 837 838 840 840 841 842 842 844 845 846 847 847 848 849 849 849 850 854 859 862 862 863 864 865 865 866 866 866 866 866 866 865 865 864 864 864 864 864 863 863 863 863 863 863 863 863 863 863 862 862 862 861 861 861 860 860 860 859 859 858 858 857 857 857 856 856 856 855
821 821 822 823 823 824 825 826 826 827 828 829 830 831 832 833 834 836 837 839 840 840 841 842 843 844 846 846 847 848 849 850 851 850 851 856 861 862 863 864 865 866 867 867 868 868 868 868 867 866 866 866 865 865 865 865 865 865 865 865 865 865 864 864 864 864 863 863 863 862 862 862 861 861 860 860 859 859 858 858 858 857 857 856 856
822 822 823 823 824 824 825 826 827 827 828 828 830 831 832 833 834 835 836 838 839 839 840 841 842 844 845 846 846 847 849 850 851 851 851 854 858 861 863 864 866 867 868 869 869 870 870 869 869 868 868 867 867 867 866 866 866 866 866 866 866 866 866 866 865 865 865 864 864 864 863 863 862 862 861 861 860 860 859 859 859 858 858 857 857
822 822 823 824 824 825 825 826 827 827 828 828 829 830 832 833 834 835 836 837 838 839 840 840 841 843 844 845 845 846 847 848 849 850 851 853 857 861 863 864 866 867 869 870 870 871 871 871 870 870 869 869 868 868 868 867 867 867 868 868 868 868 867 867 867 866 866 865 865 865 864 864 863 863 862 862 861 861 860 860 860 859 858 858 857
822 823 824 824 825 825 826 827 827 828 828 829 830 831 832 833 834 835 836 837 838 838 839 839 841 842 843 844 845 846 846 847 848 850 851 852 855 860 863 864 866 868 869 870 871 871 871 872 872 871 871 870 870 869 869 869 869 869 869 869 869 869 869 869 868 868 867 867 866 866 866 865 865 864 864 863 862 862 861 861 860 860 859 858 857
822 823 824 825 825 826 826 827 827 828 829 829 830 831 832 833 834 835 836 837 837 838 838 839 840 842 843 844 845 846 847 848 849 850 851 852 854 858 862 864 865 868 869 870 871 872 872 872 872 872 872 872 872 871 871 871 870 870 871 871 871 870 870 870 869 869 868 868 868 867 867 867 866 865 865 864 863 863 862 862 861 860 859 859 858
823 824 825 825 826 826 827 827 828 828 829 830 831 832 833 834 835 835 836 837 837 837 838 839 840 842 843 844 845 846 847 848 849 850 851 853 854 857 861 864 866 867 869 870 871 871 872 872 872 872 873 873 873 873 872 872 872 872 872 872 872 871 871 871 870 870 870 869 869 868 868 868 867 867 866 865 864 864 863 863 862 861 860 860 859
823 824 825 826 826 827 827 828 828 829 830 830 831 832 833 834 835 836 837 837 837 837 838 839 840 841 842 843 845 846 847 848 849 850 851 852 853 855 857 862 867 869 869 870 870 871 871 871 872 872 873 873 874 874 874 873 873 873 873 872 872 872 872 872 871 871 870 870 870 869 869 869 868 868 867 866 866 865 864 864 863 863 862 861 860
824 825 826 826 827 827 828 828 829 829 830 831 832 832 834 835 835 836 837 837 837 838 838 839 839 840 841 843 844 846 847 848 849 850 851 852 853 854 855 857 862 867 869 869 870 870 870 871 871 872 872 873 873 874 874 874 874 874 874 873 873 873 873 872 872 872 871 871 870 870 870 869 869 868 868 867 867 866 866 865 864 864 863 862 861
824 825 826 827 828 828 828 829 829 830 831 831 832 833 834 835 836 837 837 837 838 838 838 839 839 840 841 842 844 845 846 848 849 850 851 852 853 854 855 855 857 862 866 868 868 868 869 870 870 871 871 872 872 873 874 874 874 874 874 874 873 873 873 873 873 872 872 871 871 870 870 870 869 869 869 868 868 867 866 866 865 864 863 862 862
825 826 827 828 828 829 829 829 830 831 831 832 833 834 835 836 836 837 837 837 838 838 838 839 839 840 841 841 843 844 846 847 848 850 851 852 854 854 855 856 856 858 861 864 866 867 867 868 869 870 870 871 871 872 873 873 874 874 874 874 874 874 874 873 873 873 872 872 871 871 870 870 870 869 869 868 868 867 866 866 865 864 863 862 862
825 826 827 828 828 829 829 830 831 831 832 833 834 835 835 836 836 837 837 837 837 838 838 839 839 840 840 841 842 843 844 846 847 849 851 852 854 855 856 856 857 857 857 860 863 865 866 867 868 869 870 870 871 871 872 872 873 874 874 874 874 874 874 874 874 873 873 872 872 871 871 870 870 869 869 868 868 867 867 866 865 864 863 862 861
825 825 827 827 828 829 829 830 831 832 833 834 835 835 836 836 837 837 837 837 838 838 838 839 840 840 840 841 841 842 844 845 847 849 851 852 854 855 855 856 857 858 858 858 861 862 864 866 867 868 869 870 870 871 871 872 872 873 873 874 874 874 874 874 874 874 873 873 872 872 871 871 870 869 869 868 868 867 866 865 864 864 863 862 861
824 825 826 827 828 828 829 831 832 833 834 835 835 836 837 837 837 837 838 838 839 839 840 840 841 841 841 842 842 843 843 845 846 848 850 852 853 854 855 856 856 857 858 858 860 861 863 865 866 867 868 869 870 870 871 871 872 872 873 873 873 874 874 874 874 874 874 873 872 872 871 871 870 869 868 868 867 866 866 865 864 863 862 861 860
825 825 826 827 828 829 830 831 832 834 834 835 836 837 837 838 838 838 839 839 840 840 841 842 842 843 843 843 843 843 844 845 846 847 849 851 852 853 854 855 855 856 858 858 859 861 862 864 865 866 867 868 868 869 870 870 871 872 872 872 873 873 873 873 874 874 874 873 873 872 871 870 869 869 868 868 867 866 865 864 863 862 861 861 860
825 826 827 828 829 829 830 832 833 834 835 836 836 837 838 838 839 839 840 840 841 841 842 843 844 844 844 844 844 845 845 845 846 847 849 850 851 851 852 853 854 855 857 858 858 860 861 862 864 864 865 866 867 868 869 869 870 871 871 872 872 872 872 873 873 874 873 873 872 871 870 870 869 869 868 867 866 865 864 863 862 861 861 860 859
826 827 828 829 830 830 831 832 833 834 835 836 837 837 838 839 839 840 840 841 841 842 843 844 845 845 846 846 846 846 847 847 847 848 849 850 851 851 851 852 853 854 856 857 858 859 860 861 862 863 864 865 866 867 868 868 869 870 870 871 871 871 871 872 872 872 872 872 871 871 870 870 869 868 867 866 864 864 863 862 861 861 860 859 858
827 828 829 830 831 831 832 833 834 835 835 836 837 837 838 839 839 840 841 841 842 843 843 844 845 846 846 847 847 847 848 848 849 849 850 850 851 851 851 852 852 854 855 857 858 858 859 860 861 862 864 864 865 866 867 867 868 868 869 870 870 870 870 870 871 871 872 871 871 871 870 869 868 867 866 865 864 863 862 861 861 860 859 859 858
828 829 830 831 832 832 833 834 834 835 836 836 837 837 838 838 839 840 841 842 842 843 844 845 846 846 847 847 848 848 848 849 849 849 850 850 851 851 851 852 853 854 855 857 857 858 859 860 861 862 862 863 864 865 865 866 866 867 868 869 869 869 869 869 870 871 871 871 871 870 869 868 867 866 865 864 863 862 862 861 860 859 859 858 858
828 830 831 832 832 833 834 834 835 835 836 836 837 837 838 838 839 840 841 842 842 843 844 845 846 847 847 848 848 848 849 849 849 849 850 850 851 851 852 852 853 854 855 856 857 858 859 859 860 861 861 862 863 863 864 865 865 866 866 867 868 868 868 869 870 870 870 870 870 869 869 868 867 866 864 863 863 862 861 860 859 859 858 857 857
828 830 831 832 833 833 834 835 835 836 836 836 837 837 838 838 839 839 840 841 842 843 844 845 846 846 847 848 848 848 849 849 849 849 849 850 850 851 852 852 853 854 855 856 856 857 858 859 859 860 860 861 861 862 863 863 863 864 864 865 866 867 867 868 869 869 869 869 869 869 868 867 866 865 863 862 862 862 861 860 859 858 857 857 856
828 830 831 832 833 833 834 835 835 836 836 836 836 837 838 838 839 840 840 841 842 843 844 845 845 846 846 847 847 848 848 848 848 849 849 850 850 851 852 852 853 854 854 855 856 856 857 858 858 859 859 859 860 860 861 861 861 862 862 863 864 865 866 867 868 868 868 868 868 867 866 865 864 863 862 862 861 861 860 859 858 858 857 856 856
828 829 830 831 832 833 833 834 835 835 836 836 837 837 838 839 839 840 841 841 842 843 844 844 845 845 846 846 846 847 847 847 848 848 848 849 850 850 851 851 852 853 854 855 855 856 856 857 857 858 858 858 858 859 859 859 859 860 861 861 862 864 865 866 866 866 866 866 866 865 864 864 863 863 862 861 861 860 860 859 858 857 857 856 855
828 828 829 830 831 832 833 833 834 835 836 837 837 838 838 839 840 840 841 842 842 843 843 844 844 845 845 846 846 846 846 847 847 847 848 849 849 850 850 851 851 852 853 854 854 855 855 856 856 857 856 856 857 857 858 858 858 858 859 860 861 862 863 864 864 865 865 865 864 863 863 863 863 863 861 860 860 860 859 859 858 857 856 855 854
827 827 828 829 830 831 831 832 833 835 836 836 837 838 839 839 840 841 841 842 842 843 843 844 844 844 845 845 845 845 846 846 846 847 847 848 849 849 850 851 851 852 852 853 853 853 854 854 855 855 855 855 855 856 856 856 857 857 858 859 859 860 861 862 863 863 863 863 862 862 862 862 862 862 861 860 859 859 859 858 857 856 855 854 853
826 827 828 828 829 830 830 831 832 833 835 836 837 838 838 839 840 840 841 841 842 842 843 843 843 844 844 845 845 845 845 845 845 845 846 847 848 849 849 850 850 850 851 851 851 851 852 852 852 853 853 853 854 854 855 855 856 856 857 858 859 859 860 861 861 861 861 861 861 861 861 861 861 861 861 860 859 859 858 857 856 855 854 853 852
826 826 828 828 829 829 830 830 831 832 834 835 836 837 838 838 839 840 840 840 840 841 841 842 842 842 843 843 843 843 843 843 844 844 844 845 846 847 847 848 848 848 848 848 849 849 849 849 850 850 851 851 852 852 853 854 854 855 855 856 857 858 859 859 859 860 860 861 861 861 860 860 860 860 860 859 858 858 857 856 855 854 853 852 852
826 827 828 828 829 829 829 830 830 832 833 835 835 836 837 838 838 838 838 838 839 839 839 840 840 840 841 841 841 841 841 841 842 842 842 843 843 844 844 844 845 845 846 846 846 846 847 847 847 848 848 849 850 851 851 852 853 853 854 855 856 856 857 857 858 859 860 860 860 859 859 859 859 859 859 858 857 856 856 855 854 853 853 852 850
827 828 828 828 828 828 828 828 829 830 832 834 835 835 836 837 837 837 836 836 836 837 837 837 838 838 839 839 839 839 839 839 839 840 840 840 841 841 840 841 842 843 843 844 844 844 844 845 845 846 846 847 848 848 849 849 850 852 853 854 854 854 855 856 858 858 859 859 859 858 858 858 858 858 857 856 856 855 855 854 853 853 852 850 849
828 828 828 828 828 828 828 828 828 829 830 831 832 833 834 834 834 834 834 834 834 834 834 835 835 835 836 836 836 836 836 836 837 837 837 837 837 837 837 838 840 841 841 842 842 842 842 842 843 844 845 845 846 847 847 847 849 850 851 852 852 853 854 855 857 858 858 858 858 857 857 857 857 856 855 854 854 853 853 852 852 851 850 849 848
829 829 828 828 828 828 828 828 828 828 829 830 830 830 831 832 831 832 832 832 832 832 832 832 832 832 832 833 834 833 833 833 834 834 834 833 832 833 834 836 837 838 839 840 841 840 840 841 841 842 843 844 845 845 846 846 847 848 849 850 850 852 853 854 855 856 857 857 856 856 856 855 855 854 853 852 851 851 851 851 850 850 849 848 847
829 828 828 827 827 828 828 828 828 828 828 829 829 829 830 830 830 830 829 829 830 829 829 830 829 829 830 830 831 831 831 831 831 831 830 829 830 832 834 835 835 836 837 839 839 839 839 839 840 841 841 843 844 844 845 845 846 847 848 848 849 850 851 852 853 854 855 855 855 854 854 854 853 852 851 850 849 849 849 849 849 848 848 847 846